This is the latest recevied weather packets stored in our database for station/object KK6MIG-13. If no packets are shown the sender has not sent any weather packets the latest 10 day(s).
| Time | Temp. | Humidity | Pressure | Rain* | Wind** | Luminosity | Snow |
|---|---|---|---|---|---|---|---|
| 1787784338 | 16.67° C | 15% | 1013.6 hPa | 0 mm | - | 731 W/m² | - |
| 1787784276 | 16.67° C | 14% | 1013.5 hPa | 0 mm | - | 731 W/m² | - |
| 1787784216 | 16.67° C | 19% | 1013.5 hPa | 0 mm | - | 735 W/m² | - |
| 1787784155 | 16.67° C | 22% | 1013.6 hPa | 0 mm | - | 740 W/m² | - |
| 1787784096 | 17.22° C | 21% | 1013.6 hPa | 0 mm | - | 738 W/m² | - |
| 1787784036 | 17.22° C | 21% | 1013.6 hPa | 0 mm | - | 744 W/m² | - |
| 1787783976 | 17.22° C | 18% | 1013.7 hPa | 0 mm | - | 754 W/m² | - |
| 1787783924 | 17.22° C | 12% | 1013.7 hPa | 0 mm | - | 752 W/m² | - |
| 1787783920 | 17.22° C | 15% | 1013.7 hPa | 0 mm | - | 747 W/m² | - |
| 1787783797 | 16.67° C | 8% | 1013.7 hPa | 0 mm | - | 745 W/m² | - |
| 1787783743 | 16.67° C | 1% | 1013.7 hPa | 0 mm | - | 761 W/m² | - |
| 1787783739 | 16.67° C | 2% | 1013.7 hPa | 0 mm | - | 752 W/m² | - |
| 1787783614 | 16.67° C | 4% | 1013.7 hPa | 0 mm | - | 761 W/m² | - |
| 1787783554 | 16.67° C | 12% | 1013.7 hPa | 0 mm | - | 780 W/m² | - |
| 1787783494 | 16.67° C | 13% | 1013.8 hPa | 0 mm | - | 780 W/m² | - |
| 1787783434 | 16.67° C | 15% | 1013.8 hPa | 0 mm | - | 780 W/m² | - |
| 1787783374 | 16.67° C | 14% | 1013.8 hPa | 0 mm | - | 758 W/m² | - |
| 1787783323 | 16.67° C | 13% | 1013.8 hPa | 0 mm | - | 772 W/m² | - |
| 1787783319 | 16.67° C | 9% | 1013.9 hPa | 0 mm | - | 779 W/m² | - |
| 1787783195 | 16.67° C | 14% | 1013.8 hPa | 0 mm | - | 788 W/m² | - |
| 1787783138 | 16.67° C | 15% | 1013.9 hPa | 0 mm | - | 791 W/m² | - |
| 1787783134 | 16.67° C | 12% | 1013.8 hPa | 0 mm | - | 782 W/m² | - |
| 1787783010 | 16.67° C | 15% | 1013.9 hPa | 0 mm | - | 803 W/m² | - |
| 1787782951 | 16.67° C | 14% | 1013.9 hPa | 0 mm | - | 788 W/m² | - |
| 1787782889 | 16.67° C | 10% | 1013.8 hPa | 0 mm | - | 791 W/m² | - |
* Rain latest hour (hover to see other rain measurements)
** Current wind speed in m/s (hover to see current wind gust speed)